period_start,C,m1,H,J0,J1,J2,J3,J4,J5,JA,JB,JC,JD,JJ,JK,JN,#
2017-12-01 00:04:24,0.02,0.53,0.00,2.49,5.13,8.94,15.03,48.70,1022.48,2114.15,3405.00,3089.36,3489.22,599.97,644.04,21.61,0000 0000 0000 0000 000000
2017-12-01 00:09:25,0.01,0.53,0.00,2.51,5.11,8.91,15.06,48.75,1022.48,2114.29,3404.99,3089.18,3489.04,599.84,643.87,21.66,0000 0000 0000 0000 000000
2017-12-01 00:14:27,0.02,0.53,0.00,2.48,5.11,8.90,15.12,48.67,1022.48,2114.45,3404.73,3089.09,3489.00,599.77,643.79,21.71,0000 0000 0000 0000 000000
2017-12-01 00:19:28,0.02,0.53,0.00,2.46,5.10,8.87,15.18,48.72,1022.48,2114.55,3404.14,3089.02,3489.00,600.01,644.27,21.76,0000 0000 0000 0000 000000
2017-12-01 00:24:29,0.02,0.53,0.00,2.46,5.09,8.87,15.09,48.68,1022.48,2114.76,3404.00,3089.00,3488.94,599.74,643.83,21.81,0000 0000 0000 0000 000000
2017-12-01 00:29:31,0.01,0.53,0.00,2.46,5.09,8.89,15.15,48.77,1022.48,2114.86,3403.97,3089.00,3488.47,600.02,644.16,21.86,0000 0000 0000 0000 000000
2017-12-01 00:34:32,0.00,0.53,0.00,2.46,5.07,8.88,15.05,48.78,1022.47,2114.91,3403.77,3089.00,3488.08,600.02,644.29,21.91,0000 0000 0000 0000 000000
2017-12-01 00:39:33,0.02,0.53,0.00,2.44,5.06,8.87,15.19,48.73,1022.44,2114.95,3403.12,3088.99,3488.02,600.09,644.28,21.96,0000 0000 0000 0000 000000
2017-12-01 00:44:34,0.00,0.53,0.00,2.43,5.06,8.83,15.01,48.71,1022.39,2114.96,3403.00,3088.92,3487.99,599.55,643.60,22.01,0000 0000 0000 0000 000000
2017-12-01 00:49:36,0.01,0.53,0.00,2.44,5.05,8.85,15.17,48.63,1022.16,2114.97,3402.85,3088.74,3487.92,599.93,644.04,22.06,0000 0000 0000 0000 000000
2017-12-01 00:54:37,0.02,0.53,0.00,2.41,5.04,8.83,15.17,48.75,1022.11,2114.98,3402.27,3088.52,3487.48,600.14,644.10,22.11,0000 0000 0000 0000 000000
2017-12-01 00:59:39,0.01,0.54,0.00,2.40,5.04,8.82,15.00,48.64,1022.15,2114.98,3402.00,3088.12,3487.03,599.52,643.57,22.16,0000 0000 0000 0000 000000
2017-12-01 01:04:40,0.10,0.54,0.00,2.52,5.03,8.83,15.15,48.73,1022.07,2114.98,3400.20,3087.22,3485.84,600.41,644.11,22.21,0000 0000 0000 0000 000000
2017-12-01 01:09:41,0.31,0.55,0.00,2.79,5.02,8.68,15.10,48.71,1022.07,2114.99,3393.58,3083.53,3481.55,600.16,643.18,22.26,0000 0000 0000 0000 000000
2017-12-01 01:14:43,0.15,0.56,0.00,2.87,5.04,8.36,14.96,48.69,1022.01,2114.99,3388.49,3080.66,3478.26,599.86,642.81,22.31,0000 0000 0000 0000 000000
2017-12-01 01:19:44,0.03,0.57,0.00,3.01,5.05,8.23,15.11,48.65,1021.99,2114.98,3387.21,3080.00,3477.14,600.45,643.05,22.36,0000 0000 0000 0000 000000
2017-12-01 01:24:45,0.05,0.57,0.00,3.21,5.08,8.29,15.00,48.62,1022.00,2114.96,3386.44,3079.39,3476.46,599.85,641.93,22.41,0000 0000 0000 0000 000000
2017-12-01 01:29:46,0.09,0.57,0.00,3.40,5.12,8.44,14.96,48.67,1022.02,2114.83,3384.33,3077.96,3474.74,599.75,641.36,22.46,0000 0000 0000 0000 000000
2017-12-01 01:34:48,0.00,0.57,0.00,3.53,5.17,8.52,14.88,48.60,1022.04,2114.28,3382.76,3076.98,3473.58,599.83,641.11,22.51,0000 0000 0000 0000 000000
2017-12-01 01:39:49,0.05,0.58,0.00,3.71,5.23,8.58,14.90,48.63,1022.03,2114.05,3381.24,3075.95,3472.35,599.78,640.67,22.56,0000 0000 0000 0000 000000
2017-12-01 01:44:50,0.09,0.58,0.00,3.90,5.30,8.62,14.96,48.57,1022.00,2114.00,3379.47,3074.67,3470.69,600.16,640.56,22.61,0000 0000 0000 0000 000000
2017-12-01 01:49:52,0.06,0.58,0.00,4.06,5.38,8.70,14.92,48.52,1021.99,2113.97,3377.98,3073.64,3469.41,599.89,640.07,22.66,0000 0000 0000 0000 000000
2017-12-01 01:54:53,0.02,0.59,0.00,4.20,5.46,8.79,14.86,48.62,1022.01,2113.68,3376.76,3072.69,3468.28,599.76,639.56,22.71,0000 0000 0000 0000 000000
2017-12-01 01:59:55,0.04,0.59,0.00,4.34,5.56,8.94,14.94,48.59,1022.03,2113.06,3375.19,3071.47,3466.74,600.14,639.72,22.76,0000 0000 0000 0000 000000
2017-12-01 02:04:56,0.11,0.59,0.00,4.47,5.65,9.03,14.92,48.48,1022.08,2113.00,3372.99,3069.98,3464.81,599.97,639.09,22.81,0000 0000 0000 0000 000000
2017-12-01 02:09:57,0.07,0.60,0.00,4.61,5.75,9.16,14.92,48.39,1022.14,2112.94,3371.08,3068.54,3463.07,600.05,639.18,22.86,0000 0000 0000 0000 000000
2017-12-01 02:14:59,-0.00,0.60,0.00,4.74,5.85,9.28,14.93,48.48,1022.07,2112.27,3369.73,3067.56,3461.80,600.15,638.78,22.91,0000 0000 0000 0000 000000
2017-12-01 02:20:00,0.07,0.60,0.00,4.86,5.96,9.40,14.88,48.38,1022.09,2112.00,3368.18,3066.32,3460.32,600.06,638.30,22.96,0000 0000 0000 0000 000000
2017-12-01 02:25:01,0.05,0.60,0.00,5.01,6.07,9.54,14.91,48.44,1022.04,2111.77,3366.65,3064.96,3458.77,600.01,637.89,23.02,0000 0000 0000 0000 000000
2017-12-01 02:30:03,0.01,0.60,0.00,5.11,6.18,9.66,14.82,48.27,1022.02,2111.07,3365.25,3063.90,3457.35,599.92,637.66,23.07,0000 0000 0000 0000 000000
2017-12-01 02:35:04,0.05,0.61,0.00,5.25,6.29,9.80,14.86,48.33,1022.04,2111.00,3364.07,3062.93,3456.19,599.93,637.35,23.12,0000 0000 0000 0000 000000
2017-12-01 02:40:05,0.03,0.61,0.00,5.38,6.41,9.92,14.80,48.27,1022.04,2110.87,3363.03,3062.01,3455.20,599.81,636.84,23.17,0000 0000 0000 0000 000000
2017-12-01 02:45:07,-0.00,0.61,0.00,5.49,6.53,10.05,14.86,48.22,1021.99,2110.11,3361.80,3061.10,3454.08,599.94,636.76,23.22,0000 0000 0000 0000 000000
2017-12-01 02:50:08,0.05,0.61,0.00,5.60,6.65,10.18,14.86,48.34,1021.99,2109.99,3360.76,3060.24,3453.02,600.02,636.62,23.27,0000 0000 0000 0000 000000
2017-12-01 02:55:09,-0.00,0.61,0.00,5.71,6.77,10.32,14.87,48.15,1021.99,2109.48,3359.64,3059.31,3451.94,600.14,636.49,23.32,0000 0000 0000 0000 000000
2017-12-01 03:00:10,0.06,0.61,0.00,5.82,6.89,10.45,14.83,48.32,1021.99,2109.03,3358.09,3058.18,3450.52,600.09,636.17,23.37,0000 0000 0000 0000 000000
2017-12-01 03:05:11,0.13,0.62,0.00,5.92,7.01,10.55,14.93,48.32,1022.00,2108.87,3354.83,3056.17,3448.16,600.16,636.16,23.42,0000 0000 0000 0000 000000
2017-12-01 03:10:12,0.02,0.62,0.00,6.03,7.13,10.65,14.79,48.21,1022.00,2108.13,3352.47,3054.52,3446.16,600.33,635.86,23.47,0000 0000 0000 0000 000000
2017-12-01 03:15:13,0.06,0.62,0.00,6.13,7.25,10.77,14.84,48.17,1022.01,2107.99,3350.95,3053.41,3444.81,600.04,635.43,23.52,0000 0000 0000 0000 000000
2017-12-01 03:20:15,-0.00,0.63,0.00,6.23,7.37,10.90,14.80,48.18,1022.01,2107.49,3349.74,3052.46,3443.71,600.27,635.45,23.57,0000 0000 0000 0000 000000
2017-12-01 03:25:16,0.06,0.63,0.00,6.34,7.48,11.00,14.80,48.17,1022.00,2107.01,3348.13,3051.17,3442.21,599.92,634.90,23.62,0000 0000 0000 0000 000000
2017-12-01 03:30:18,0.11,0.63,0.00,6.42,7.60,11.14,14.80,48.26,1022.00,2106.76,3345.36,3049.27,3440.00,599.80,634.61,23.67,0000 0000 0000 0000 000000
2017-12-01 03:35:19,0.02,0.63,0.00,6.52,7.72,11.25,14.78,48.11,1022.00,2106.06,3343.41,3047.90,3438.26,599.95,634.43,23.72,0000 0000 0000 0000 000000
2017-12-01 03:40:20,0.09,0.64,0.00,6.63,7.83,11.36,14.79,48.24,1022.00,2105.94,3341.63,3046.54,3436.68,599.84,634.09,23.77,0000 0000 0000 0000 000000
2017-12-01 03:45:21,0.04,0.64,0.00,6.74,7.95,11.47,14.82,48.23,1021.99,2105.21,3339.13,3044.76,3434.62,599.93,634.04,23.82,0000 0000 0000 0000 000000
2017-12-01 03:50:23,0.18,0.65,0.00,6.82,8.07,11.57,14.82,48.25,1021.99,2105.00,3335.30,3042.21,3431.77,600.02,633.89,23.87,0000 0000 0000 0000 000000
2017-12-01 03:55:24,0.01,0.65,0.00,6.91,8.18,11.66,14.83,48.17,1021.99,2104.72,3333.40,3040.88,3430.11,600.13,633.82,23.92,0000 0000 0000 0000 000000
2017-12-01 04:00:26,-0.00,0.65,0.00,7.00,8.29,11.79,14.74,48.16,1021.99,2104.06,3332.43,3040.05,3429.12,599.94,633.35,23.97,0000 0000 0000 0000 000000
2017-12-01 04:05:27,0.05,0.65,0.00,7.10,8.41,11.89,14.76,48.17,1021.99,2103.99,3331.42,3039.29,3428.22,600.02,633.14,24.02,0000 0000 0000 0000 000000
2017-12-01 04:10:28,-0.01,0.66,0.00,7.17,8.52,11.99,14.77,48.13,1021.99,2103.47,3330.27,3038.31,3427.17,600.33,633.30,24.07,0000 0000 0000 0000 000000
2017-12-01 04:15:29,0.06,0.66,0.00,7.25,8.63,12.09,14.82,48.13,1021.99,2103.01,3328.63,3037.17,3425.81,600.18,633.04,24.12,0000 0000 0000 0000 000000
2017-12-01 04:20:30,0.04,0.66,0.00,7.37,8.74,12.21,14.73,48.02,1022.01,2102.87,3327.20,3036.14,3424.54,599.96,632.60,24.17,0000 0000 0000 0000 000000
2017-12-01 04:25:32,-0.00,0.66,0.00,7.46,8.85,12.31,14.78,48.02,1022.05,2102.18,3325.95,3035.21,3423.43,600.06,632.42,24.22,0000 0000 0000 0000 000000
2017-12-01 04:30:33,0.04,0.66,0.00,7.53,8.96,12.42,14.74,48.07,1022.03,2101.99,3324.95,3034.44,3422.36,599.94,632.24,24.27,0000 0000 0000 0000 000000
2017-12-01 04:35:34,0.00,0.66,0.00,7.62,9.06,12.50,14.71,48.04,1022.09,2101.68,3323.98,3033.69,3421.32,599.94,631.99,24.32,0000 0000 0000 0000 000000
2017-12-01 04:40:35,0.01,0.66,0.00,7.71,9.16,12.60,14.69,47.91,1022.14,2101.05,3322.94,3032.90,3420.34,599.92,631.92,24.37,0000 0000 0000 0000 000000
2017-12-01 04:45:37,0.05,0.67,0.00,7.79,9.27,12.71,14.68,47.88,1022.26,2100.97,3321.75,3032.05,3419.22,599.93,631.71,24.42,0000 0000 0000 0000 000000
2017-12-01 04:50:38,-0.01,0.67,0.00,7.88,9.38,12.79,14.69,47.98,1022.30,2100.40,3320.66,3031.21,3418.17,599.77,631.44,24.47,0000 0000 0000 0000 000000
2017-12-01 04:55:40,0.04,0.67,0.00,7.95,9.48,12.89,14.78,47.84,1022.31,2100.01,3319.73,3030.43,3417.18,599.98,631.47,24.52,0000 0000 0000 0000 000000
2017-12-01 05:00:41,0.02,0.67,0.00,8.05,9.58,13.00,14.70,47.88,1022.22,2099.92,3318.87,3029.82,3416.20,599.90,631.09,24.57,0000 0000 0000 0000 000000
2017-12-01 05:05:43,-0.02,0.67,0.00,8.13,9.68,13.09,14.76,47.99,1022.15,2099.22,3317.94,3029.01,3415.25,600.30,631.18,24.62,0000 0000 0000 0000 000000
2017-12-01 05:10:45,0.05,0.67,0.00,8.22,9.78,13.19,14.76,47.97,1022.23,2098.99,3317.03,3028.19,3414.27,600.36,631.12,24.67,0000 0000 0000 0000 000000
2017-12-01 05:15:47,0.01,0.67,0.00,8.27,9.89,13.27,14.72,47.99,1022.13,2098.71,3316.10,3027.61,3413.33,599.93,630.53,24.72,0000 0000 0000 0000 000000
2017-12-01 05:20:49,-0.01,0.67,0.00,8.35,9.98,13.38,14.62,47.84,1022.04,2098.07,3315.24,3026.97,3412.49,600.05,630.44,24.77,0000 0000 0000 0000 000000
2017-12-01 05:25:50,0.04,0.67,0.00,8.43,10.08,13.48,14.67,47.95,1022.05,2097.98,3314.38,3026.14,3411.60,599.78,630.01,24.82,0000 0000 0000 0000 000000
2017-12-01 05:30:52,-0.01,0.67,0.00,8.50,10.18,13.56,14.60,47.90,1022.00,2097.50,3313.42,3025.37,3410.64,600.16,630.09,24.87,0000 0000 0000 0000 000000
2017-12-01 05:35:54,0.02,0.67,0.00,8.59,10.28,13.67,14.69,47.93,1022.00,2097.02,3312.57,3024.78,3409.78,600.13,629.92,24.92,0000 0000 0000 0000 000000
2017-12-01 05:40:55,0.03,0.67,0.00,8.66,10.37,13.74,14.69,47.83,1021.99,2096.98,3311.88,3024.03,3408.92,599.96,629.52,24.97,0000 0000 0000 0000 000000
2017-12-01 05:45:56,-0.02,0.68,0.00,8.72,10.46,13.84,14.65,47.76,1021.99,2096.45,3311.03,3023.40,3408.06,600.03,629.62,25.02,0000 0000 0000 0000 000000
2017-12-01 05:50:58,0.02,0.67,0.00,8.83,10.56,13.91,14.71,47.74,1021.99,2096.02,3310.17,3022.83,3407.19,599.89,629.21,25.07,0000 0000 0000 0000 000000
2017-12-01 05:56:00,0.04,0.68,0.00,8.88,10.65,14.03,14.58,47.74,1021.99,2095.95,3309.47,3022.04,3406.32,599.88,628.90,25.12,0000 0000 0000 0000 000000
2017-12-01 06:01:02,-0.02,0.68,0.00,8.96,10.74,14.11,14.62,47.73,1022.00,2095.30,3308.68,3021.40,3405.46,600.04,628.98,25.17,0000 0000 0000 0000 000000
2017-12-01 06:06:03,0.04,0.68,0.00,9.03,10.83,14.21,14.66,47.68,1022.02,2095.00,3307.50,3020.50,3404.31,599.89,628.72,25.22,0000 0000 0000 0000 000000
2017-12-01 06:11:05,-0.00,0.68,0.00,9.11,10.92,14.27,14.63,47.71,1022.02,2094.67,3306.50,3019.82,3403.27,599.61,628.27,25.27,0000 0000 0000 0000 000000
2017-12-01 06:16:06,0.00,0.68,0.00,9.17,11.01,14.36,14.59,47.68,1022.04,2094.08,3305.80,3019.06,3402.47,599.80,628.33,25.32,0000 0000 0000 0000 000000
2017-12-01 06:21:08,0.04,0.68,0.00,9.23,11.10,14.45,14.62,47.67,1022.06,2093.99,3305.02,3018.53,3401.61,599.93,628.44,25.37,0000 0000 0000 0000 000000
2017-12-01 06:26:09,-0.01,0.68,0.00,9.32,11.19,14.54,14.61,47.78,1022.05,2093.67,3304.24,3017.99,3400.80,600.28,628.55,25.42,0000 0000 0000 0000 000000
2017-12-01 06:31:10,0.00,0.68,0.00,9.41,11.28,14.64,14.73,47.87,1022.01,2093.07,3303.72,3017.30,3399.95,600.09,628.08,25.47,0000 0000 0000 0000 000000
2017-12-01 06:36:12,0.03,0.68,0.00,9.51,11.36,14.73,14.66,47.86,1022.02,2092.99,3302.91,3016.83,3399.09,600.08,627.85,25.52,0000 0000 0000 0000 000000
2017-12-01 06:41:14,-0.01,0.68,0.00,9.55,11.45,14.81,14.61,47.93,1022.03,2092.59,3302.02,3016.04,3398.18,600.09,627.84,25.57,0000 0000 0000 0000 000000
2017-12-01 06:46:15,0.02,0.68,0.00,9.63,11.54,14.88,14.67,47.90,1022.00,2092.04,3301.18,3015.39,3397.36,599.88,627.34,25.62,0000 0000 0000 0000 000000
2017-12-01 06:51:16,0.02,0.68,0.00,9.71,11.62,14.98,14.63,47.87,1021.99,2092.00,3300.54,3014.98,3396.69,600.34,627.64,25.67,0000 0000 0000 0000 000000
2017-12-01 06:56:18,0.02,0.69,0.00,9.78,11.71,15.07,14.53,47.76,1022.00,2091.85,3299.85,3014.27,3395.92,599.67,626.84,25.72,0000 0000 0000 0000 000000
2017-12-01 07:01:19,-0.02,0.68,0.00,9.81,11.79,15.15,14.68,47.77,1022.01,2091.11,3298.96,3013.70,3395.03,600.14,627.34,25.77,0000 0000 0000 0000 000000
2017-12-01 07:06:21,0.03,0.69,0.00,9.88,11.87,15.22,14.64,47.74,1022.02,2090.99,3298.11,3013.03,3394.16,600.00,626.99,25.82,0000 0000 0000 0000 000000
2017-12-01 07:11:22,0.03,0.69,0.00,9.97,11.95,15.32,14.72,47.81,1022.04,2090.81,3297.29,3012.37,3393.44,599.89,626.74,25.87,0000 0000 0000 0000 000000
2017-12-01 07:16:24,-0.02,0.69,0.00,10.06,12.04,15.41,14.60,47.61,1022.02,2090.16,3296.24,3011.81,3392.54,600.22,626.83,25.92,0000 0000 0000 0000 000000
2017-12-01 07:21:25,0.04,0.69,0.00,10.10,12.12,15.48,14.64,47.75,1022.01,2090.00,3295.45,3011.03,3391.64,599.66,626.21,25.97,0000 0000 0000 0000 000000
2017-12-01 07:26:26,0.04,0.69,0.00,10.14,12.19,15.57,14.67,47.67,1022.00,2089.95,3294.39,3010.23,3390.97,600.05,626.43,26.02,0000 0000 0000 0000 000000
2017-12-01 07:31:27,-0.02,0.69,0.00,10.23,12.27,15.64,14.61,47.58,1021.99,2089.47,3293.63,3009.88,3390.12,600.08,626.21,26.07,0000 0000 0000 0000 000000
2017-12-01 07:36:29,0.02,0.69,0.00,10.31,12.35,15.73,14.65,47.62,1021.99,2089.03,3292.81,3009.09,3389.37,600.09,626.20,26.12,0000 0000 0000 0000 000000
2017-12-01 07:41:30,0.04,0.69,0.00,10.37,12.42,15.81,14.63,47.59,1021.98,2088.99,3291.91,3008.58,3388.48,600.12,625.98,26.17,0000 0000 0000 0000 000000
2017-12-01 07:46:31,0.01,0.69,0.00,10.42,12.50,15.87,14.65,47.77,1021.98,2088.83,3290.98,3008.00,3387.66,599.76,625.49,26.22,0000 0000 0000 0000 000000
2017-12-01 07:51:32,-0.01,0.69,0.00,10.47,12.58,15.96,14.57,47.53,1021.99,2088.15,3290.07,3007.38,3386.76,599.90,625.69,26.28,0000 0000 0000 0000 000000
2017-12-01 07:56:34,0.02,0.69,0.00,10.54,12.65,16.03,14.59,47.63,1021.98,2088.00,3289.16,3006.97,3385.88,600.00,625.50,26.32,0000 0000 0000 0000 000000
2017-12-01 08:01:35,0.04,0.70,0.00,10.58,12.73,16.11,14.64,47.58,1021.97,2087.97,3288.33,3006.26,3385.05,599.78,625.20,26.38,0000 0000 0000 0000 000000
2017-12-01 08:06:36,-0.02,0.70,0.00,10.65,12.81,16.18,14.65,47.55,1021.99,2087.55,3287.43,3005.84,3384.23,600.09,625.36,26.43,0000 0000 0000 0000 000000
2017-12-01 08:11:38,0.02,0.70,0.00,10.73,12.88,16.26,14.58,47.56,1021.99,2087.05,3286.51,3005.06,3383.40,599.93,625.00,26.48,0000 0000 0000 0000 000000
2017-12-01 08:16:39,0.05,0.70,0.00,10.76,12.95,16.35,14.56,47.51,1021.98,2086.99,3285.65,3004.54,3382.57,600.07,625.07,26.53,0000 0000 0000 0000 000000
2017-12-01 08:21:40,0.02,0.70,0.00,10.82,13.03,16.39,14.52,47.45,1021.98,2086.97,3284.74,3004.00,3381.79,599.90,624.78,26.58,0000 0000 0000 0000 000000
2017-12-01 08:26:41,-0.02,0.70,0.00,10.87,13.10,16.45,14.58,47.38,1021.98,2086.42,3283.86,3003.30,3380.97,599.74,624.45,26.63,0000 0000 0000 0000 000000
2017-12-01 08:31:43,0.02,0.70,0.00,10.91,13.17,16.53,14.54,47.38,1021.99,2086.02,3282.93,3002.82,3380.08,600.01,624.70,26.68,0000 0000 0000 0000 000000
2017-12-01 08:36:44,0.04,0.70,0.00,10.97,13.25,16.60,14.57,47.52,1021.98,2085.99,3282.00,3002.05,3379.18,600.02,624.63,26.73,0000 0000 0000 0000 000000
2017-12-01 08:41:45,0.02,0.70,0.00,11.03,13.32,16.68,14.68,47.51,1021.97,2085.76,3281.08,3001.50,3378.33,600.33,624.89,26.78,0000 0000 0000 0000 000000
2017-12-01 08:46:46,-0.02,0.70,0.00,11.09,13.39,16.75,14.55,47.38,1021.95,2085.10,3280.21,3000.98,3377.52,599.81,624.18,26.83,0000 0000 0000 0000 000000
2017-12-01 08:51:48,0.04,0.70,0.00,11.18,13.46,16.84,14.59,47.52,1021.91,2085.00,3279.47,3000.28,3376.85,600.09,624.19,26.88,0000 0000 0000 0000 000000
2017-12-01 08:56:49,0.03,0.71,0.00,11.24,13.53,16.90,14.59,47.40,1021.81,2084.99,3278.68,2999.92,3376.00,599.91,623.76,26.93,0000 0000 0000 0000 000000
2017-12-01 09:01:51,-0.02,0.71,0.00,11.31,13.60,16.95,14.58,47.32,1021.86,2084.49,3277.63,2999.12,3375.11,600.21,623.99,26.98,0000 0000 0000 0000 000000
2017-12-01 09:06:52,0.02,0.71,0.00,11.35,13.67,17.03,14.63,47.39,1021.92,2084.06,3276.88,2998.66,3374.27,599.81,623.56,27.03,0000 0000 0000 0000 000000
2017-12-01 09:11:53,0.03,0.71,0.00,11.40,13.73,17.09,14.57,47.41,1021.93,2084.00,3276.03,2998.02,3373.51,600.34,623.92,27.08,0000 0000 0000 0000 000000
2017-12-01 09:16:54,0.03,0.71,0.00,11.47,13.80,17.16,14.54,47.34,1021.92,2083.94,3275.17,2997.42,3372.79,599.98,623.37,27.13,0000 0000 0000 0000 000000
2017-12-01 09:21:56,-0.04,0.71,0.00,11.53,13.86,17.23,14.55,47.38,1021.95,2083.45,3274.36,2996.99,3372.01,599.90,623.12,27.18,0000 0000 0000 0000 000000
2017-12-01 09:26:57,0.03,0.71,0.00,11.59,13.93,17.30,14.54,47.32,1021.94,2083.03,3273.60,2996.25,3371.20,599.74,622.83,27.23,0000 0000 0000 0000 000000
2017-12-01 09:31:59,0.02,0.71,0.00,11.61,14.00,17.37,14.53,47.40,1021.95,2083.00,3272.86,2995.97,3370.52,599.87,623.06,27.28,0000 0000 0000 0000 000000
2017-12-01 09:37:00,0.03,0.71,0.00,11.67,14.06,17.44,14.63,47.31,1021.96,2082.90,3272.05,2995.25,3369.80,600.45,623.40,27.33,0000 0000 0000 0000 000000
2017-12-01 09:42:01,-0.02,0.71,0.00,11.72,14.13,17.50,14.52,47.33,1021.91,2082.35,3271.22,2994.94,3369.02,599.65,622.60,27.38,0000 0000 0000 0000 000000
2017-12-01 09:47:03,0.04,0.71,0.00,11.79,14.20,17.56,14.53,47.27,1021.82,2082.02,3270.43,2994.12,3368.24,599.98,622.64,27.43,0000 0000 0000 0000 000000
2017-12-01 09:52:04,0.03,0.72,0.00,11.86,14.26,17.62,14.53,47.31,1021.75,2082.00,3269.63,2993.86,3367.55,599.85,622.30,27.48,0000 0000 0000 0000 000000
2017-12-01 09:57:05,0.01,0.72,0.00,11.92,14.32,17.69,14.60,47.25,1021.67,2081.80,3268.76,2993.07,3366.82,599.97,622.21,27.53,0000 0000 0000 0000 000000
2017-12-01 10:02:07,-0.01,0.72,0.00,11.95,14.39,17.77,14.63,47.35,1021.59,2081.21,3267.98,2992.70,3366.04,600.14,622.36,27.58,0000 0000 0000 0000 000000
2017-12-01 10:07:08,0.03,0.72,0.00,11.99,14.45,17.84,14.48,47.33,1021.55,2081.00,3267.10,2992.02,3365.23,599.86,621.91,27.63,0000 0000 0000 0000 000000
2017-12-01 10:12:09,0.04,0.72,0.00,12.05,14.51,17.89,14.50,47.26,1021.67,2080.99,3266.34,2991.57,3364.57,599.95,621.93,27.68,0000 0000 0000 0000 000000
2017-12-01 10:17:11,0.00,0.72,0.00,12.14,14.58,17.94,14.60,47.27,1021.76,2080.81,3265.52,2991.01,3363.86,600.09,621.82,27.73,0000 0000 0000 0000 000000
2017-12-01 10:22:12,-0.01,0.72,0.00,12.19,14.64,17.99,14.53,47.38,1021.77,2080.16,3264.75,2990.40,3363.06,599.59,621.29,27.78,0000 0000 0000 0000 000000
2017-12-01 10:27:13,0.02,0.72,0.00,12.19,14.70,18.07,14.54,47.37,1021.61,2080.00,3263.98,2989.98,3362.27,599.93,621.57,27.83,0000 0000 0000 0000 000000
2017-12-01 10:32:15,0.04,0.72,0.00,12.24,14.76,18.11,14.52,47.21,1021.53,2079.99,3263.15,2989.27,3361.76,599.90,621.43,27.88,0000 0000 0000 0000 000000
2017-12-01 10:37:16,0.01,0.72,0.00,12.30,14.82,18.17,14.62,47.41,1021.51,2079.87,3262.61,2988.99,3361.02,600.37,621.66,27.93,0000 0000 0000 0000 000000
2017-12-01 10:42:17,-0.02,0.72,0.00,12.35,14.88,18.26,14.47,47.26,1021.52,2079.17,3261.92,2988.26,3360.19,599.75,621.13,27.98,0000 0000 0000 0000 000000
2017-12-01 10:47:18,0.02,0.72,0.00,12.41,14.94,18.30,14.48,47.25,1021.61,2079.01,3261.09,2987.99,3359.59,599.67,620.84,28.03,0000 0000 0000 0000 000000
2017-12-01 10:52:19,0.04,0.73,0.00,12.46,15.00,18.35,14.51,47.13,1021.55,2078.99,3260.39,2987.37,3358.96,600.16,621.23,28.08,0000 0000 0000 0000 000000
2017-12-01 10:57:20,0.00,0.73,0.00,12.50,15.06,18.41,14.46,47.20,1021.50,2078.80,3259.78,2986.99,3358.15,599.93,620.92,28.13,0000 0000 0000 0000 000000
2017-12-01 11:02:21,-0.01,0.73,0.00,12.56,15.12,18.46,14.50,47.23,1021.50,2078.13,3258.92,2986.32,3357.44,600.09,621.01,28.18,0000 0000 0000 0000 000000
2017-12-01 11:07:23,0.02,0.73,0.00,12.62,15.17,18.53,14.52,47.25,1021.51,2078.01,3258.09,2985.98,3356.82,600.28,620.94,28.23,0000 0000 0000 0000 000000
2017-12-01 11:12:24,0.04,0.73,0.00,12.67,15.23,18.58,14.45,47.14,1021.51,2078.00,3257.44,2985.42,3356.06,599.85,620.41,28.28,0000 0000 0000 0000 000000
2017-12-01 11:17:25,-0.00,0.73,0.00,12.71,15.29,18.63,14.51,47.21,1021.55,2077.83,3256.74,2985.00,3355.58,599.85,620.40,28.33,0000 0000 0000 0000 000000
2017-12-01 11:22:27,-0.02,0.73,0.00,12.76,15.35,18.68,14.49,47.16,1021.61,2077.23,3255.97,2984.48,3354.96,600.07,620.39,28.38,0000 0000 0000 0000 000000
2017-12-01 11:27:28,0.02,0.73,0.00,12.81,15.39,18.76,14.49,47.24,1021.59,2077.02,3255.14,2984.00,3354.16,599.63,619.93,28.43,0000 0000 0000 0000 000000
2017-12-01 11:32:29,0.04,0.73,0.00,12.86,15.45,18.82,14.52,47.17,1021.54,2077.00,3254.42,2983.71,3353.58,600.06,620.22,28.48,0000 0000 0000 0000 000000
2017-12-01 11:37:30,0.01,0.73,0.00,12.91,15.50,18.86,14.50,47.11,1021.50,2076.93,3253.83,2983.03,3352.97,600.24,620.27,28.53,0000 0000 0000 0000 000000
2017-12-01 11:42:32,-0.00,0.73,0.00,12.94,15.56,18.91,14.51,47.21,1021.50,2076.52,3253.00,2982.77,3352.13,599.87,619.87,28.58,0000 0000 0000 0000 000000
2017-12-01 11:47:33,0.01,0.73,0.00,12.98,15.61,18.98,14.47,47.19,1021.51,2076.05,3252.13,2982.04,3351.53,599.86,619.77,28.63,0000 0000 0000 0000 000000
2017-12-01 11:52:34,0.03,0.73,0.00,13.03,15.66,19.04,14.51,47.17,1021.50,2076.00,3251.30,2981.71,3350.90,600.38,620.14,28.68,0000 0000 0000 0000 000000
2017-12-01 11:57:36,0.03,0.74,0.00,13.09,15.72,19.07,14.49,47.29,1021.50,2075.98,3250.65,2981.03,3350.09,599.89,619.50,28.73,0000 0000 0000 0000 000000
2017-12-01 12:02:37,0.01,0.74,0.00,13.14,15.77,19.15,14.46,47.23,1021.54,2075.84,3249.93,2980.90,3349.56,599.80,619.29,28.78,0000 0000 0000 0000 000000
2017-12-01 12:07:38,-0.02,0.74,0.00,13.19,15.82,19.19,14.45,47.16,1021.59,2075.20,3249.08,2980.13,3348.99,600.00,619.47,28.83,0000 0000 0000 0000 000000
2017-12-01 12:12:40,0.02,0.74,0.00,13.26,15.87,19.23,14.46,47.20,1021.63,2075.02,3248.34,2979.97,3348.17,599.86,619.14,28.88,0000 0000 0000 0000 000000
2017-12-01 12:17:41,0.04,0.74,0.00,13.30,15.92,19.28,14.43,47.04,1021.61,2075.00,3247.65,2979.31,3347.65,600.30,619.52,28.93,0000 0000 0000 0000 000000
2017-12-01 12:22:42,0.01,0.74,0.00,13.36,15.98,19.34,14.47,47.11,1021.51,2074.95,3246.80,2978.99,3346.96,600.00,619.06,28.98,0000 0000 0000 0000 000000
2017-12-01 12:27:44,0.00,0.74,0.00,13.41,16.03,19.39,14.44,47.08,1021.51,2074.59,3246.03,2978.34,3346.16,600.28,619.16,29.03,0000 0000 0000 0000 000000
2017-12-01 12:32:45,-0.01,0.74,0.00,13.45,16.08,19.44,14.46,47.13,1021.50,2074.06,3245.28,2977.99,3345.60,600.35,619.23,29.08,0000 0000 0000 0000 000000
2017-12-01 12:37:46,0.03,0.74,0.00,13.50,16.13,19.51,14.51,47.13,1021.51,2074.00,3244.51,2977.55,3344.97,600.47,619.22,29.13,0000 0000 0000 0000 000000
2017-12-01 12:42:47,0.03,0.74,0.00,13.53,16.18,19.57,14.45,47.08,1021.51,2073.98,3243.70,2977.02,3344.16,599.85,618.55,29.18,0000 0000 0000 0000 000000
2017-12-01 12:47:49,0.03,0.74,0.00,13.59,16.23,19.63,14.43,47.12,1021.50,2073.92,3242.77,2976.62,3343.64,600.24,618.81,29.23,0000 0000 0000 0000 000000
2017-12-01 12:52:49,-0.01,0.74,0.00,13.64,16.28,19.66,14.43,47.25,1021.50,2073.57,3241.93,2976.01,3343.01,599.70,618.14,29.29,0000 0000 0000 0000 000000
2017-12-01 12:57:50,-0.00,0.74,0.00,13.69,16.33,19.68,14.41,47.23,1021.49,2073.11,3241.09,2975.77,3342.23,599.84,618.18,29.34,0000 0000 0000 0000 000000
2017-12-01 13:02:51,0.03,0.75,0.00,13.73,16.38,19.76,14.43,47.18,1021.50,2073.00,3240.18,2975.05,3341.71,600.30,618.49,29.39,0000 0000 0000 0000 000000